TimeEDT,TemperatureF,Dew PointF,Humidity,Sea Level PressureIn,VisibilityMPH,Wind Direction,Wind SpeedMPH,Gust SpeedMPH,PrecipitationIn,Events,Conditions,WindDirDegrees,DateUTC
12:52 AM,66.9,57.0,70,30.22,10.0,Calm,Calm,-,N/A,,Overcast,0,2013-07-13 04:52:00
1:52 AM,66.0,59.0,78,30.22,10.0,North,3.5,-,N/A,,Overcast,350,2013-07-13 05:52:00
2:52 AM,64.9,57.9,78,30.22,10.0,Calm,Calm,-,N/A,,Overcast,0,2013-07-13 06:52:00
3:52 AM,66.0,55.9,70,30.23,10.0,Calm,Calm,-,N/A,,Overcast,0,2013-07-13 07:52:00
4:52 AM,66.0,55.0,68,30.24,10.0,Calm,Calm,-,N/A,,Overcast,0,2013-07-13 08:52:00
5:52 AM,66.0,55.0,68,30.25,10.0,North,4.6,-,N/A,,Overcast,360,2013-07-13 09:52:00
6:52 AM,66.0,55.9,70,30.27,10.0,NNW,5.8,-,N/A,,Overcast,340,2013-07-13 10:52:00
7:52 AM,68.0,57.0,68,30.28,10.0,North,3.5,-,N/A,,Overcast,350,2013-07-13 11:52:00
8:52 AM,69.1,57.9,68,30.29,10.0,NNE,3.5,-,N/A,,Overcast,30,2013-07-13 12:52:00
9:52 AM,71.1,62.1,73,30.30,10.0,SW,3.5,-,N/A,,Overcast,220,2013-07-13 13:52:00
10:52 AM,73.0,64.0,73,30.30,10.0,Calm,Calm,-,N/A,,Overcast,0,2013-07-13 14:52:00
11:52 AM,73.0,64.9,76,30.30,10.0,Calm,Calm,-,N/A,,Overcast,0,2013-07-13 15:52:00
12:44 PM,71.6,69.8,94,30.31,7.0,ESE,3.5,-,0.02,Rain,Light Rain,120,2013-07-13 16:44:00
12:52 PM,73.0,69.1,87,30.31,10.0,SE,4.6,-,0.02,,Overcast,130,2013-07-13 16:52:00
1:18 PM,73.4,68.0,83,30.30,10.0,East,4.6,-,N/A,,Overcast,80,2013-07-13 17:18:00
1:52 PM,75.0,68.0,79,30.30,10.0,Calm,Calm,-,N/A,,Overcast,0,2013-07-13 17:52:00
2:52 PM,75.0,69.1,82,30.31,10.0,Calm,Calm,-,N/A,,Overcast,0,2013-07-13 18:52:00
3:52 PM,75.0,70.0,84,30.30,10.0,Calm,Calm,-,N/A,,Overcast,0,2013-07-13 19:52:00
4:52 PM,75.9,69.1,79,30.29,10.0,Calm,Calm,-,N/A,,Overcast,0,2013-07-13 20:52:00
5:18 PM,77.0,69.8,78,30.28,10.0,SSE,3.5,-,N/A,,Overcast,160,2013-07-13 21:18:00
5:40 PM,78.8,69.8,74,30.28,10.0,SSE,4.6,-,N/A,,Mostly Cloudy,160,2013-07-13 21:40:00
5:48 PM,78.8,69.8,74,30.28,10.0,SSW,8.1,-,N/A,,Overcast,200,2013-07-13 21:48:00
5:52 PM,78.1,69.1,74,30.28,10.0,SSW,8.1,-,N/A,,Mostly Cloudy,210,2013-07-13 21:52:00
6:52 PM,75.9,70.0,82,30.29,10.0,WSW,3.5,-,N/A,,Overcast,240,2013-07-13 22:52:00
7:26 PM,75.2,69.8,83,30.30,10.0,Calm,Calm,-,N/A,,Overcast,0,2013-07-13 23:26:00
7:52 PM,75.0,70.0,84,30.30,10.0,Calm,Calm,-,N/A,,Overcast,0,2013-07-13 23:52:00
8:52 PM,73.0,69.1,87,30.31,10.0,NNW,3.5,-,N/A,,Overcast,330,2013-07-14 00:52:00
9:52 PM,73.0,69.1,87,30.31,10.0,SSW,3.5,-,N/A,,Overcast,210,2013-07-14 01:52:00
10:19 PM,71.6,69.8,94,30.31,10.0,Calm,Calm,-,N/A,,Overcast,0,2013-07-14 02:19:00
10:52 PM,72.0,69.1,91,30.31,10.0,Calm,Calm,-,N/A,,Overcast,0,2013-07-14 02:52:00
11:52 PM,71.1,69.1,93,30.30,10.0,NNW,3.5,-,N/A,,Overcast,330,2013-07-14 03:52:00